Weather in Ilskhan-Yurt

Russia / Chechen Republic     43°16′35″N   46°06′00″E
temp.,
°C
wind,
m/s
gust,
m/s
humid.,
%
clouds,
%
prec.,
mm/h
press.,
hPa
HPBL,
m
15 august, mon
mon1500:00+24ssw22540 0.0 100552
03:00+23sse11550 0.0 100517
06:00+24s11510 0.0 100531
09:00+31nnw21340 0.0 1005752
12:00+38nne33230 0.0 10031518
15:00+41ne54130 0.0 10012082
18:00+36ene58200 0.0 1001397
21:00+27ssw11390 0.0 100347
16 august, tue
tue1600:00+25ssw12470 0.0 100424
03:00+24s11480 0.0 100517
06:00+25ssw11400 0.0 100635
09:00+33nw32260 0.0 1006727
12:00+38nnw33220 0.0 10061707
15:00+40n33180 0.0 10052408
18:00+38n24210 0.0 1005333
21:00+29ssw22420 0.0 100721
17 august, wed
wed1700:00+27ssw22460 0.0 100836
03:00+26ssw34410 0.0 100969
06:00+27sw23340 0.0 101090
09:00+34wnw34270 0.0 1009966
12:00+38n33220 0.0 10072084
15:00+40nne43190 0.0 10052590
18:00+38nne23210 0.0 1005312
21:00+29s11350 0.0 100622
18 august, thu
thu1800:00+27ssw22440 0.0 100636
03:00+26sw23350 0.0 100642
06:00+26ssw23290 0.0 100768
09:00+35nnw21210 0.0 1007814
12:00+39nne33200 0.0 10052039
15:00+41nne42171 0.0 10032750
18:00+35ene56242 0.0 1004515
21:00+27ssw014136 0.0 100533
19 august, fri
fri1900:00+27s1142100 0.0 100519
03:00+26w224387 0.0 100532
06:00+25sw3635100 0.0 1008246
09:00+30w4537100 0.0 10091018
12:00+33nne3330100 0.0 10081560
15:00+35ne4427100 0.0 10071613
18:00+31ne57303 0.0 1006425
21:00+24se125212 0.0 100744